COSMOS 1691 DEB, 16270

Orbit data source: Space-Track

COSMOS 1691 DEB, 16270 is space debris in LEO originally from a launch on Wed, 09 Oct 1985 UTC launched from the Plesetsk Missile And Space Complex (PKMTR). Debris objects in space refer to the collection of defunct objects orbiting the Earth. Examples of debris include non-operational satellites, rocket bodies, and fragments generated from explosions, collisions, or faulty payload assembly.

Loading next visibility...
Identifier
16270, 1985-094P
Orbit
LEO
Country
Flag of CISCIS
Related business
Manufacturer
Unknown
Mission
Spacecraft
Bus & Motor
Unknown
Mass
Unknown
Launch date (UTC)
1985-10-09 (41 years ago)
Launch vehicle
Unknown
Launch site
Plesetsk Missile And Space Complex (PKMTR)
Object type
Payload
Rocket body
Debris
Shape & HBR
Unknown shape, 0.2 m
Radar Cross Section
Medium (>0.1 m² and <1 m²)

Expand to show TLE details & history
Last TLE update: 9 hours ago

TLE from 9 hours ago
0 COSMOS 1691 DEB
1 16270U 85094P   26127.12864644  .00000262  00000-0  11084-2 0  9991
2 16270  82.7353  11.4418 0259750 138.4411 340.9327 12.69139774876575
Epoch: 2026-05-07T03:05Z
TLE epoch observation values (Epoch: 2026-05-07T03:05:15.052Z)
Latitude
60.8792°
Longitude
-93.01015°
Altitude
1,205.75 km
Speed
7.345 km/s
True Right ascension
11h 53m 07s
True Declination
60° 44' 29"
Sunlit
Object was in daylight at epoch
Visualization orbit readout
Latitude
Unknown
Longitude
Unknown
Altitude
Unknown
Speed
Unknown
Apparent Right ascension
Unknown
Apparent Declination
Unknown
Sunlit
N/A
Visualization observer readout
Local Sidereal Time
19:54:57
Azimuth
Unknown
Elevation
Unknown
Doppler factor
Unknown
Orbital elements
Apogee altitude
1,584.337 km
Perigee altitude
1,181.159 km
Semi-major axis
7,760.885 km
Eccentricity
0.02598
Inclination
82.7353°
RAAN
11.4418°
Arg. of periapsis
138.4411°
True anomaly
339.92964°
Mean anomaly
340.9327°
Eccentric anomaly
340.4343°
Mean motion
3.17451 °/min
Orbital period
113.4 mins
BSTAR
0.0011084
Loading maneuver chart data...
Computing Atmospheric mass density...
Loading historical data...
Loading historical data...
Loading historical data...
Loading historical data...
Loading historical data...
Loading historical data...
Loading historical data...

Documentation

Showing up to 5 results
|